SCP
0 0 0 0 0 0 0 0 0 0 0 0 0 -0 -0 -0 -0 -0 -0 -0 -0 -0 -0 -0 -0 -0 -0 -0 -0 -0 -0 -0 -0 -0 -0 -0 -0 -0 0 0 0 -0 -0
0 0 0 0 0 0 0 0 0 0 0 0 0 -0 -0 -0 -0 -0 -0 -0 -0 -0 -0 -0 -0 -0 -0 -0 -0 -0 -0 -0 -0 0 -0 -0 -0 -0 -0 -0 -0 -0 -0
0 0 0 0 0 -0 -0 -0 -0 -0 -0 -0 0 0 0 -0 -0 -0 -0 -0 -0 -0 -0 -0 -0 -0 -0 -0 -0 -0 -0 -0 -0 0 -0 -0 -0 -0 -0 -0 -0 -0 -0
0 0 0 0 -0 -0 -0 -0 -0 -0 -0 0 0 0 0 -0 -0 -0 -0 -0 -0 -0 -0 -0 -0 -0 -0 -0 -0 -0 -0 -0 0 -0 -0 0 -0 -0 -0 -0 -0 -0 -0
0 0 -0 0 -0 -0 -0 -0 -0 0 0 0 0 0 0 -0 -0 -0 -0 -0 -0 -0 -0 -0 -0 -0 -0 -0 -0 -0 -0 -0 -0 -0 0 0 0 0 -0 -0 -0 -0 -0
0 0 -0 -0 -0 -0 -0 -0 -0 0 0 0 0 0 0 -0 -0 -0 -0 -0 -0 -0 -0 -0 -0 -0 -0 -0 -0 -0 -0 0 0 0 0 0 0 0 0 0 -0 -0 -0
-0 0 0 -0 -0 -0 -0 -0 -0 -0 0 0 0 0 0 -0 -0 -0 -0 -0 -0 -0 -0 -0 -0 -0 -0 -0 -0 -0 -0 0 0 0 0 0 0 0 0 0 0 0 -0
-0 -0 -0 0 -0 -0 -0 -0 -0 -0 0 0 0 0 0 0 0 0 -0 -0 -0 -0 -0 -0 -0 -0 0 0 0 0 -0 0 0 0 0 0 0 0 0 0 0 0 0
0 -0 -0 -0 0 0 -0 -0 -0 -0 -0 -0 -0 -0 -0 -0 -0 -0 0 -0 -0 -0 -0 -0 -0 -0 0 -0 -0 -0 -0 -0 0 -0 -0 -0 0 0 0 0 0 0 0
0 -0 -0 -0 -0 0 -0 -0 -0 -0 -0 -0 -0 -0 -0 -0 0 0 -0 0 0 -0 -0 -0 -0 -0 -0 -0 -0 -0 -0 0 0 -0 -0 0 0 0 0 0 0 0 0
0 -0 -0 -0 -0 -0 -0 -0 -0 -0 -0 -0 -0 -0 -0 -0 -0 -0 -0 -0 -0 -0 0 0 -0 -0 -0 0 0 -0 0 0 0 -0 -0 -0 0 0 -0 -0 0 0 -0
-0 -0 -0 -0 -0 -0 -0 -0 -0 -0 0 -0 -0 0 0 0 0 0 -0 0 0 -0 -0 -0 -0 -0 0 0 -0 -0 0 -0 -0 -0 -0 -0 0 -0 -0 -0 0 0 0
-0 -0 -0 -0 -0 -0 -0 -0 -0 0 -0 -0 -0 -0 -0 -0 -0 -0 -0 0 -0 0 0 0 0 0 -0 0 0 0 0 0 -0 0 -0 -0 -0 -0 0 0 -0 0 0
-0 -0 -0 -0 -0 -0 -0 -0 -0 -0 -0 0 -0 -0 -0 -0 -0 -0 0 -0 0 -0 0 -0 0 0 -0 0 0 0 0 0 0 -0 -0 -0 -0 -0 -0 0 0 0 0
-0 -0 -0 -0 -0 -0 -0 -0 -0 -0 0 0 0 -0 -0 -0 -0 -0 -0 0 -0 -0 -0 0 0 -0 -0 -0 0 0 0 -0 -0 0 0 -0 -0 -0 -0 -0 0 0 0
0 -0 -0 -0 -0 -0 -0 -0 0 0 0 0 -0 -0 -0 -0 -0 0 -0 -0 -0 -0 -0 0 0 -0 0 0 0 0 0 -0 -0 -0 -0 -0 -0 -0 -0 -0 -0 -0 -0
0 0 0 0 0 -0 -0 0 0 0 0 -0 -0 -0 -0 -0 -0 -0 -0 0 -0 -0 -0 -0 -0 -0 0 0 0 0 0 -0 -0 0 -0 0 -0 -0 -0 -0 -0 -0 -0
0 0 0 0 0 -0 -0 0 0 0 0 -0 -0 -0 -0 -0 -0 -0 0 0 0 0 0 -0 -0 0 0 0 0 -0 0 -0 0 0 0 -0 -0 -0 -0 -0 -0 -0 -0
0 0 0 0 0 0 0 0 0 0 0 0 -0 -0 -0 -0 -0 -0 -0 0 0 0 0 -0 0 -0 0 0 0 -0 -0 -0 -0 0 -0 -0 0 0 0 -1 -0 -0 -0
0 0 0 0 0 0 0 0 0 0 0 0 0 0 0 0 -0 0 0 0 0 0 -0 0 0 0 -0 -0 0 0 -0 -0 -0 -0 -0 0 -0 -0 -0 -0 -0 -0 -0
0 0 0 0 0 0 0 0 0 0 0 0 0 0 0 0 0 -0 0 -0 -0 -0 0 0 0 0 0 0 -0 -0 0 -0 -0 -0 -0 -0 -0 -0 -0 0 0 -0 -0
0 -0 -0 -0 -0 -0 0 0 0 0 0 0 0 0 -0 0 0 0 0 -0 -0 -0 0 0 0 0 0 0 0 0 0 -0 -0 -0 -0 -0 0 -0 -0 -0 -0 0 -0
-0 -0 -0 -0 0 0 -0 0 0 0 0 0 0 0 0 -0 -0 -0 -0 0 0 0 0 0 0 0 0 0 0 0 0 -0 0 0 0 0 -0 -0 -0 -0 -0 -0 -0
0 -0 0 -0 -0 -0 0 0 0 0 0 0 0 0 0 0 -0 -0 -0 -0 -0 0 0 0 0 0 0 0 0 0 0 0 0 0 0 0 0 0 0 0 -0 0 0
-0 0 0 -0 -0 0 0 0 0 0 0 -0 0 0 0 0 0 -0 -0 -0 0 0 0 -0 -0 0 0 0 0 0 0 0 0 0 0 0 0 0 0 0 0 0 0
0 0 0 0 0 0 0 0 0 -0 -0 -0 -0 0 -0 0 0 -0 -0 -0 0 0 0 0 0 -0 0 0 0 0 0 0 0 0 0 0 0 0 0 0 0 0 0
Wind_Speed_500mb
39 46 44 44 42 44 48 47 48 49 47 52 48 45 41 39 35 32 29 29 28 26 24 23 23 29 31 35 34 35 34 32 31 31 32 32 32 34 37 37 34 30 32
41 41 44 46 46 48 48 47 47 46 44 43 39 37 36 36 32 30 25 23 23 21 20 21 25 28 31 33 35 34 33 33 30 31 33 29 31 31 32 33 30 32 31
43 42 42 46 50 49 46 44 41 38 38 35 35 33 33 34 29 23 24 20 21 20 21 22 23 25 27 30 31 29 27 27 29 33 41 20 22 23 22 21 24 24 24
42 41 40 49 49 44 42 38 37 34 35 33 33 31 31 25 22 23 19 19 21 20 21 22 24 24 25 27 26 23 23 22 23 33 20 19 17 21 19 21 23 23 23
43 40 40 44 43 40 39 37 32 28 28 27 29 27 22 22 18 19 17 27 23 24 23 24 22 22 23 22 21 20 19 20 21 22 18 18 15 17 19 20 22 20 25
37 36 43 42 39 36 35 31 29 27 29 29 27 24 22 19 17 17 21 30 27 25 23 23 21 19 19 20 20 20 18 19 23 15 14 19 10 12 16 19 19 20 19
34 35 40 38 36 33 30 29 28 29 30 26 22 20 19 16 20 21 21 27 26 23 22 18 16 16 16 15 13 10 6 3 1 1 5 6 2 4 10 14 15 19 18
36 34 31 34 32 31 31 30 29 29 25 21 19 21 19 17 17 18 19 20 18 16 14 12 11 10 9 7 6 4 4 6 9 9 6 5 15 8 9 13 13 12 15
35 33 31 30 33 31 30 25 26 26 22 19 18 19 18 16 9 13 14 14 13 12 9 5 5 6 5 6 7 8 10 12 16 16 12 7 14 20 16 15 13 11 11
35 32 32 30 28 27 25 27 25 24 22 21 18 16 22 28 25 15 11 7 8 6 6 4 5 6 8 9 8 9 12 14 11 17 9 13 15 19 22 18 15 13 11
32 31 30 29 28 26 23 21 24 23 21 25 28 20 21 18 25 16 7 3 5 5 6 6 9 10 11 10 11 12 14 9 14 15 15 28 19 23 23 20 17 14 12
34 33 31 30 27 26 22 22 24 23 25 29 26 25 34 24 30 28 23 25 17 17 15 16 15 15 12 9 12 16 10 12 22 10 14 26 17 30 30 28 23 20 18
33 33 33 33 31 27 23 22 24 23 23 28 28 36 27 27 32 30 33 23 30 26 16 21 18 12 16 14 13 13 11 11 11 11 19 21 24 22 39 37 30 28 24
34 32 32 31 31 31 24 24 26 29 26 33 31 29 32 29 23 32 28 30 31 33 29 25 23 25 21 17 13 16 13 10 12 14 20 23 21 19 22 36 37 32 30
29 32 31 32 32 30 32 26 28 30 19 23 36 33 32 32 31 25 30 30 28 34 40 34 29 29 21 18 18 18 14 17 10 12 13 23 16 19 22 27 30 32 32
25 27 30 34 34 32 30 33 35 33 23 22 26 30 33 36 35 31 30 34 33 25 26 29 33 32 24 22 20 20 20 15 16 16 15 21 21 21 22 23 26 28 31
18 21 25 29 30 31 29 25 27 26 28 18 15 19 30 36 36 34 30 22 26 28 21 22 33 35 29 24 26 22 19 21 19 19 17 16 21 19 19 19 21 24 26
18 21 23 23 26 29 27 25 24 27 28 27 20 24 26 27 34 37 38 32 25 23 21 16 23 31 31 28 26 25 23 23 22 23 20 21 20 19 23 18 16 18 20
22 24 27 26 26 28 26 25 23 8 14 31 20 11 7 17 30 36 31 32 31 25 25 20 24 30 34 34 34 30 26 24 24 23 23 25 25 24 23 28 23 20 20
25 26 27 27 27 29 28 29 33 38 34 32 31 28 20 22 25 26 33 36 33 29 26 24 27 31 35 35 33 33 31 28 29 26 27 29 26 27 23 27 27 25 22
26 28 31 33 34 34 33 31 31 29 26 23 23 29 30 24 27 27 27 35 36 33 25 24 29 28 20 25 28 32 33 33 33 30 27 31 28 29 26 29 29 25 28
28 32 33 35 35 39 32 30 29 26 27 25 23 21 16 16 23 26 23 29 32 28 33 23 25 22 20 28 24 25 27 25 27 28 30 31 31 28 31 31 31 33 29
26 30 32 33 35 36 35 35 39 34 35 27 26 26 22 15 17 21 23 22 33 34 29 31 29 24 17 21 29 25 16 23 11 21 23 28 31 33 33 30 32 32 33
14 22 25 29 29 29 34 36 38 35 27 22 23 24 24 24 20 20 22 25 28 30 34 35 30 29 26 24 24 30 28 20 12 14 17 19 18 24 34 35 35 35 35
27 25 23 25 21 21 28 30 33 36 29 24 23 29 32 30 28 23 20 24 29 30 33 36 33 31 35 33 27 25 30 32 29 31 25 22 20 17 24 29 31 30 32
23 20 19 18 19 20 25 26 27 32 29 24 24 25 25 25 28 28 24 22 23 28 30 32 33 34 33 31 30 32 33 31 30 25 24 22 23 20 20 27 33 33 32
Wind_Direction_500mb
134 135 136 140 140 139 137 137 134 133 134 133 135 136 134 134 127 124 117 125 132 124 122 114 108 104 108 113 114 111 106 104 101 101 99 97 97 98 99 94 85 100 101
134 135 138 144 143 141 139 137 134 135 138 142 142 138 142 142 137 136 130 129 131 133 128 119 113 106 105 105 101 105 103 101 96 95 89 91 101 102 106 109 109 101 102
135 138 135 141 147 146 142 139 139 142 142 144 152 148 145 145 143 143 142 137 138 136 132 125 117 111 106 111 117 111 102 104 107 98 90 94 101 101 102 103 98 100 102
138 139 138 141 146 146 152 151 149 148 148 144 148 151 147 148 142 142 146 139 146 144 134 128 124 116 111 112 114 112 108 102 102 92 98 106 100 98 97 96 95 101 102
140 145 155 147 150 149 151 155 155 154 152 151 152 159 155 143 151 144 153 136 141 138 133 128 124 117 117 120 115 109 104 104 101 86 97 102 103 97 99 101 98 100 109
143 146 154 156 158 156 158 160 160 154 150 142 145 147 144 145 143 139 148 140 145 142 137 133 126 124 120 122 115 108 104 101 90 93 82 96 126 109 108 106 108 105 107
144 147 155 162 166 166 166 162 159 157 155 149 153 152 147 150 131 130 133 135 142 141 139 138 132 130 126 127 129 122 118 120 134 118 106 110 156 150 138 126 117 113 114
146 149 160 165 169 168 163 161 160 163 161 157 151 139 130 122 121 125 119 122 128 136 142 144 142 140 137 156 175 205 282 293 277 277 261 282 238 228 195 159 142 136 124
150 154 155 157 162 159 159 158 162 161 166 155 151 146 155 147 164 145 138 126 126 125 139 152 169 179 179 212 228 246 265 273 274 277 288 289 261 222 206 190 174 166 160
151 159 157 163 162 162 168 170 176 169 160 159 154 162 181 212 174 169 121 133 119 126 145 189 230 247 238 248 261 282 286 290 292 271 269 235 265 204 199 196 189 192 192
163 165 165 169 170 168 174 185 186 176 173 195 205 199 204 227 193 191 195 222 230 236 261 237 241 247 255 284 296 300 294 294 241 262 254 257 254 214 200 201 196 203 211
172 174 176 172 176 179 174 194 186 186 201 221 246 237 237 220 212 231 248 251 264 248 251 258 248 254 260 247 288 316 310 275 283 263 246 256 248 219 219 219 220 219 227
178 180 184 181 180 180 185 207 190 197 213 231 252 264 287 246 242 234 240 249 255 255 247 265 265 258 243 238 255 264 272 285 255 250 250 254 244 231 225 223 223 231 243
185 186 188 191 190 184 191 205 198 207 229 231 246 265 263 260 254 255 251 246 250 248 240 237 240 231 238 249 261 259 266 254 266 262 257 264 249 230 216 222 231 242 248
193 196 194 195 196 195 192 202 222 219 243 255 252 252 254 253 258 266 256 245 252 249 250 241 234 238 239 244 254 268 278 304 252 260 250 270 235 221 216 219 234 242 248
192 199 201 202 203 198 204 204 218 229 247 265 257 245 252 261 259 265 266 256 252 250 234 241 227 229 238 238 252 265 276 265 265 267 256 268 261 236 229 230 239 246 249
199 200 202 208 209 207 207 215 232 243 252 257 254 260 260 257 259 259 263 258 266 253 243 237 220 225 232 241 254 257 267 267 267 264 263 247 262 252 239 240 247 245 246
208 217 210 209 210 213 209 216 231 247 249 258 256 280 256 265 261 256 260 264 263 263 252 220 225 224 233 242 251 255 257 262 267 260 260 248 245 244 261 242 249 248 247
223 231 228 219 216 215 219 227 227 290 249 249 249 274 292 282 273 260 250 263 257 258 249 222 218 226 238 246 250 255 257 261 262 257 256 252 240 239 237 258 247 254 256
236 238 238 236 231 226 221 234 238 252 250 249 254 259 272 281 276 264 254 246 253 252 248 233 243 240 239 238 247 250 250 256 260 264 258 248 247 247 244 237 258 255 252
241 245 244 246 234 238 239 229 225 228 235 253 270 268 267 270 254 255 254 245 248 243 241 243 242 243 243 233 235 249 253 264 258 258 248 239 243 245 238 234 237 237 259
238 241 244 249 249 253 238 239 235 245 252 254 260 285 276 265 240 249 251 242 239 232 237 250 243 237 226 207 219 237 251 263 250 247 240 241 248 243 246 241 238 230 227
236 247 249 248 252 257 251 254 260 258 263 260 266 264 276 274 256 246 244 242 238 235 235 244 242 235 234 232 224 209 229 243 240 246 235 236 239 241 237 235 234 236 235
244 248 251 257 254 262 258 248 253 259 260 261 256 251 257 265 262 253 242 240 239 232 235 240 236 235 230 231 236 230 235 249 249 260 234 239 245 238 231 235 234 236 234
273 260 252 256 252 269 265 262 253 261 264 276 261 270 263 254 256 254 255 243 240 237 244 236 235 235 238 235 232 234 239 242 247 250 263 252 242 238 231 230 225 227 232
259 241 236 252 255 279 281 276 271 268 270 270 276 269 267 256 245 246 246 244 240 238 238 238 235 231 235 236 238 238 239 238 239 238 242 251 252 243 238 231 225 227 228
Wind_Speed_850mb
39 46 44 44 42 44 48 47 48 49 47 52 48 45 41 39 35 32 29 29 28 26 24 23 23 29 31 35 34 35 34 32 31 31 32 32 32 34 37 37 34 30 32
41 41 44 46 46 48 48 47 47 46 44 43 39 37 36 36 32 30 25 23 23 21 20 21 25 28 31 33 35 34 33 33 30 31 33 29 31 31 32 33 30 32 31
43 42 42 46 50 49 46 44 41 38 38 35 35 33 33 34 29 23 24 20 21 20 21 22 23 25 27 30 31 29 27 27 29 33 41 20 22 23 22 21 24 24 24
42 41 40 49 49 44 42 38 37 34 35 33 33 31 31 25 22 23 19 19 21 20 21 22 24 24 25 27 26 23 23 22 23 33 20 19 17 21 19 21 23 23 23
43 40 40 44 43 40 39 37 32 28 28 27 29 27 22 22 18 19 17 27 23 24 23 24 22 22 23 22 21 20 19 20 21 22 18 18 15 17 19 20 22 20 25
37 36 43 42 39 36 35 31 29 27 29 29 27 24 22 19 17 17 21 30 27 25 23 23 21 19 19 20 20 20 18 19 23 15 14 19 10 12 16 19 19 20 19
34 35 40 38 36 33 30 29 28 29 30 26 22 20 19 16 20 21 21 27 26 23 22 18 16 16 16 15 13 10 6 3 1 1 5 6 2 4 10 14 15 19 18
36 34 31 34 32 31 31 30 29 29 25 21 19 21 19 17 17 18 19 20 18 16 14 12 11 10 9 7 6 4 4 6 9 9 6 5 15 8 9 13 13 12 15
35 33 31 30 33 31 30 25 26 26 22 19 18 19 18 16 9 13 14 14 13 12 9 5 5 6 5 6 7 8 10 12 16 16 12 7 14 20 16 15 13 11 11
35 32 32 30 28 27 25 27 25 24 22 21 18 16 22 28 25 15 11 7 8 6 6 4 5 6 8 9 8 9 12 14 11 17 9 13 15 19 22 18 15 13 11
32 31 30 29 28 26 23 21 24 23 21 25 28 20 21 18 25 16 7 3 5 5 6 6 9 10 11 10 11 12 14 9 14 15 15 28 19 23 23 20 17 14 12
34 33 31 30 27 26 22 22 24 23 25 29 26 25 34 24 30 28 23 25 17 17 15 16 15 15 12 9 12 16 10 12 22 10 14 26 17 30 30 28 23 20 18
33 33 33 33 31 27 23 22 24 23 23 28 28 36 27 27 32 30 33 23 30 26 16 21 18 12 16 14 13 13 11 11 11 11 19 21 24 22 39 37 30 28 24
34 32 32 31 31 31 24 24 26 29 26 33 31 29 32 29 23 32 28 30 31 33 29 25 23 25 21 17 13 16 13 10 12 14 20 23 21 19 22 36 37 32 30
29 32 31 32 32 30 32 26 28 30 19 23 36 33 32 32 31 25 30 30 28 34 40 34 29 29 21 18 18 18 14 17 10 12 13 23 16 19 22 27 30 32 32
25 27 30 34 34 32 30 33 35 33 23 22 26 30 33 36 35 31 30 34 33 25 26 29 33 32 24 22 20 20 20 15 16 16 15 21 21 21 22 23 26 28 31
18 21 25 29 30 31 29 25 27 26 28 18 15 19 30 36 36 34 30 22 26 28 21 22 33 35 29 24 26 22 19 21 19 19 17 16 21 19 19 19 21 24 26
18 21 23 23 26 29 27 25 24 27 28 27 20 24 26 27 34 37 38 32 25 23 21 16 23 31 31 28 26 25 23 23 22 23 20 21 20 19 23 18 16 18 20
22 24 27 26 26 28 26 25 23 8 14 31 20 11 7 17 30 36 31 32 31 25 25 20 24 30 34 34 34 30 26 24 24 23 23 25 25 24 23 28 23 20 20
25 26 27 27 27 29 28 29 33 38 34 32 31 28 20 22 25 26 33 36 33 29 26 24 27 31 35 35 33 33 31 28 29 26 27 29 26 27 23 27 27 25 22
26 28 31 33 34 34 33 31 31 29 26 23 23 29 30 24 27 27 27 35 36 33 25 24 29 28 20 25 28 32 33 33 33 30 27 31 28 29 26 29 29 25 28
28 32 33 35 35 39 32 30 29 26 27 25 23 21 16 16 23 26 23 29 32 28 33 23 25 22 20 28 24 25 27 25 27 28 30 31 31 28 31 31 31 33 29
26 30 32 33 35 36 35 35 39 34 35 27 26 26 22 15 17 21 23 22 33 34 29 31 29 24 17 21 29 25 16 23 11 21 23 28 31 33 33 30 32 32 33
14 22 25 29 29 29 34 36 38 35 27 22 23 24 24 24 20 20 22 25 28 30 34 35 30 29 26 24 24 30 28 20 12 14 17 19 18 24 34 35 35 35 35
27 25 23 25 21 21 28 30 33 36 29 24 23 29 32 30 28 23 20 24 29 30 33 36 33 31 35 33 27 25 30 32 29 31 25 22 20 17 24 29 31 30 32
23 20 19 18 19 20 25 26 27 32 29 24 24 25 25 25 28 28 24 22 23 28 30 32 33 34 33 31 30 32 33 31 30 25 24 22 23 20 20 27 33 33 32
Wind_Direction_850mb
134 135 136 140 140 139 137 137 134 133 134 133 135 136 134 134 127 124 117 125 132 124 122 114 108 104 108 113 114 111 106 104 101 101 99 97 97 98 99 94 85 100 101
134 135 138 144 143 141 139 137 134 135 138 142 142 138 142 142 137 136 130 129 131 133 128 119 113 106 105 105 101 105 103 101 96 95 89 91 101 102 106 109 109 101 102
135 138 135 141 147 146 142 139 139 142 142 144 152 148 145 145 143 143 142 137 138 136 132 125 117 111 106 111 117 111 102 104 107 98 90 94 101 101 102 103 98 100 102
138 139 138 141 146 146 152 151 149 148 148 144 148 151 147 148 142 142 146 139 146 144 134 128 124 116 111 112 114 112 108 102 102 92 98 106 100 98 97 96 95 101 102
140 145 155 147 150 149 151 155 155 154 152 151 152 159 155 143 151 144 153 136 141 138 133 128 124 117 117 120 115 109 104 104 101 86 97 102 103 97 99 101 98 100 109
143 146 154 156 158 156 158 160 160 154 150 142 145 147 144 145 143 139 148 140 145 142 137 133 126 124 120 122 115 108 104 101 90 93 82 96 126 109 108 106 108 105 107
144 147 155 162 166 166 166 162 159 157 155 149 153 152 147 150 131 130 133 135 142 141 139 138 132 130 126 127 129 122 118 120 134 118 106 110 156 150 138 126 117 113 114
146 149 160 165 169 168 163 161 160 163 161 157 151 139 130 122 121 125 119 122 128 136 142 144 142 140 137 156 175 205 282 293 277 277 261 282 238 228 195 159 142 136 124
150 154 155 157 162 159 159 158 162 161 166 155 151 146 155 147 164 145 138 126 126 125 139 152 169 179 179 212 228 246 265 273 274 277 288 289 261 222 206 190 174 166 160
151 159 157 163 162 162 168 170 176 169 160 159 154 162 181 212 174 169 121 133 119 126 145 189 230 247 238 248 261 282 286 290 292 271 269 235 265 204 199 196 189 192 192
163 165 165 169 170 168 174 185 186 176 173 195 205 199 204 227 193 191 195 222 230 236 261 237 241 247 255 284 296 300 294 294 241 262 254 257 254 214 200 201 196 203 211
172 174 176 172 176 179 174 194 186 186 201 221 246 237 237 220 212 231 248 251 264 248 251 258 248 254 260 247 288 316 310 275 283 263 246 256 248 219 219 219 220 219 227
178 180 184 181 180 180 185 207 190 197 213 231 252 264 287 246 242 234 240 249 255 255 247 265 265 258 243 238 255 264 272 285 255 250 250 254 244 231 225 223 223 231 243
185 186 188 191 190 184 191 205 198 207 229 231 246 265 263 260 254 255 251 246 250 248 240 237 240 231 238 249 261 259 266 254 266 262 257 264 249 230 216 222 231 242 248
193 196 194 195 196 195 192 202 222 219 243 255 252 252 254 253 258 266 256 245 252 249 250 241 234 238 239 244 254 268 278 304 252 260 250 270 235 221 216 219 234 242 248
192 199 201 202 203 198 204 204 218 229 247 265 257 245 252 261 259 265 266 256 252 250 234 241 227 229 238 238 252 265 276 265 265 267 256 268 261 236 229 230 239 246 249
199 200 202 208 209 207 207 215 232 243 252 257 254 260 260 257 259 259 263 258 266 253 243 237 220 225 232 241 254 257 267 267 267 264 263 247 262 252 239 240 247 245 246
208 217 210 209 210 213 209 216 231 247 249 258 256 280 256 265 261 256 260 264 263 263 252 220 225 224 233 242 251 255 257 262 267 260 260 248 245 244 261 242 249 248 247
223 231 228 219 216 215 219 227 227 290 249 249 249 274 292 282 273 260 250 263 257 258 249 222 218 226 238 246 250 255 257 261 262 257 256 252 240 239 237 258 247 254 256
236 238 238 236 231 226 221 234 238 252 250 249 254 259 272 281 276 264 254 246 253 252 248 233 243 240 239 238 247 250 250 256 260 264 258 248 247 247 244 237 258 255 252
241 245 244 246 234 238 239 229 225 228 235 253 270 268 267 270 254 255 254 245 248 243 241 243 242 243 243 233 235 249 253 264 258 258 248 239 243 245 238 234 237 237 259
238 241 244 249 249 253 238 239 235 245 252 254 260 285 276 265 240 249 251 242 239 232 237 250 243 237 226 207 219 237 251 263 250 247 240 241 248 243 246 241 238 230 227
236 247 249 248 252 257 251 254 260 258 263 260 266 264 276 274 256 246 244 242 238 235 235 244 242 235 234 232 224 209 229 243 240 246 235 236 239 241 237 235 234 236 235
244 248 251 257 254 262 258 248 253 259 260 261 256 251 257 265 262 253 242 240 239 232 235 240 236 235 230 231 236 230 235 249 249 260 234 239 245 238 231 235 234 236 234
273 260 252 256 252 269 265 262 253 261 264 276 261 270 263 254 256 254 255 243 240 237 244 236 235 235 238 235 232 234 239 242 247 250 263 252 242 238 231 230 225 227 232
259 241 236 252 255 279 281 276 271 268 270 270 276 269 267 256 245 246 246 244 240 238 238 238 235 231 235 236 238 238 239 238 239 238 242 251 252 243 238 231 225 227 228